This demonstration page uses our WeatherBlox Daily Observations layout. Learn more.

39.92423, -83.80882

Hourly Observations for September 4, 2019

Temp ( °F °C ) Dew Point ( °F °C ) Humidity (%) Winds ( mph kmh ) Pressure ( in mb ) Visibility ( mi km ) Precip ( " mm )
12:56 am 00:56 Clear 74 23.3 68 20 82 82 WSW 9 15 29.91 1013 10 16.09344 0 0
1:56 am 01:56 Cloudy 75 23.9 68 20 79 79 SW 10 17 29.91 1013 10 16.09344 0 0
2:33 am 02:33 Cloudy 75 24 70 21 83 83 SW 10 17 29.94 1014 10 16.09344 0 0
2:56 am 02:56 Mostly Cloudy 75 23.9 69 20.6 82 82 WSW 13 20 29.91 1013 10 16.09344 0 0
3:18 am 03:18 Partly Cloudy 75 24 70 21 83 83 WSW 14 22 29.91 1013 10 16.09344 0 0
3:25 am 03:25 Mostly Cloudy 75 24 70 21 83 83 WSW 12 19 29.91 1013 10 16.09344 0 0
3:56 am 03:56 Cloudy 75 23.9 69 20.6 82 82 WSW 12 19 29.91 1013 10 16.09344 0 0
4:56 am 04:56 Cloudy 74 23.3 70 21.1 88 88 SW 12 19 29.91 1013 10 16.09344 0 0
5:56 am 05:56 Cloudy 72 22.2 70 21.1 94 94 WSW 9 15 29.91 1013 10 16.09344 0 0
6:41 am 06:41 Cloudy 72 22 72 22 100 100 WSW 7 11 29.94 1014 10 16.09344 0 0
6:56 am 06:56 Cloudy 72 22.2 71 21.7 97 97 WSW 9 15 29.94 1014 10 16.09344 0 0
7:44 am 07:44 Partly Cloudy 72 22 72 22 100 100 W 7 11 29.97 1015 9 14.484096 0 0
7:56 am 07:56 Sunny 71 21.7 71 21.7 100 100 W 7 11 29.97 1015 10 16.09344 0 0
8:56 am 08:56 Mostly Sunny 74 23.3 68 20 82 82 NW 9 15 30 1016 10 16.09344 0 0
9:14 am 09:14 Mostly Cloudy 73 23 68 20 83 83 NW 10 17 30 1016 10 16.09344 0 0
9:26 am 09:26 Partly Cloudy 73 23 66 19 78 78 NW 10 17 30 1016 10 16.09344 0 0
9:56 am 09:56 Mostly Sunny 74 23.3 64 17.8 71 71 NNW 12 19 30 1016 10 16.09344 0 0
10:56 am 10:56 Sunny 77 25 61 16.1 58 58 WNW 10 17 30 1016 10 16.09344 0 0
11:56 am 11:56 Sunny 78 25.6 62 16.7 58 58 NW 8 13 30.03 1017 10 16.09344 0 0
12:56 pm 12:56 Sunny 80 26.7 63 17.2 56 56 W 9 15 30 1016 10 16.09344 0 0
1:56 pm 13:56 Sunny 80 26.7 59 15 49 49 WSW 9 15 30.03 1017 10 16.09344 0 0
2:56 pm 14:56 Mostly Sunny 81 27.2 61 16.1 51 51 NW 9 15 30.03 1017 10 16.09344 0 0
3:56 pm 15:56 Mostly Sunny 80 26.7 62 16.7 54 54 NNW 13 20 30 1016 10 16.09344 0 0
4:56 pm 16:56 Mostly Sunny 79 26.1 61 16.1 54 54 NNW 12 19 30 1016 10 16.09344 0 0
5:56 pm 17:56 Sunny 76 24.4 61 16.1 60 60 N 10 17 30.03 1017 10 16.09344 0 0
6:56 pm 18:56 Sunny 75 23.9 61 16.1 62 62 N 9 15 30.03 1017 10 16.09344 0 0
7:56 pm 19:56 Sunny 70 21.1 60 15.6 71 71 N 8 13 30.06 1018 10 16.09344 0 0
8:56 pm 20:56 Clear 68 20 60 15.6 76 76 N 9 15 30.06 1018 10 16.09344 0 0
9:56 pm 21:56 Clear 66 18.9 60 15.6 81 81 N 10 17 30.06 1018 10 16.09344 0 0
10:56 pm 22:56 Clear 65 18.3 61 16.1 87 87 N 9 15 30.09 1019 10 16.09344 0 0
11:56 pm 23:56 Clear 63 17.2 60 15.6 90 90 N 8 13 30.09 1019 10 16.09344 0 0

Powered by AerisWeather